| time (UTC) | temp F | wind direction | speed MPH | gust MPH | rain 1hr in | rain 24hr in | rain mn in | humidity % | barometer mb |
| 20260504223122 | 69 | 234 | 3.0 | 9.0 | 0.00 | 0.00 | 0.00 | 70 | 1012.0 |
| 20260504221600 | 69 | 219 | 1.0 | 7.0 | 0.00 | 0.00 | 0.00 | 69 | 1012.0 |
| 20260504220057 | 69 | 0 | 3.0 | 8.0 | 0.00 | 0.00 | 0.00 | 69 | 1012.3 |
| 20260504214554 | 68 | 0 | 0.0 | 5.0 | 0.00 | 0.00 | 0.00 | 73 | 1012.3 |
| 20260504213103 | 68 | 225 | 2.0 | 8.0 | 0.00 | 0.00 | 0.00 | 70 | 1012.5 |
| 20260504211600 | 68 | 0 | 2.0 | 9.0 | 0.00 | 0.00 | 0.00 | 72 | 1012.7 |
| 20260504210057 | 67 | 243 | 2.0 | 9.0 | 0.00 | 0.00 | 0.00 | 72 | 1013.0 |
| 20260504204550 | 66 | 271 | 1.0 | 7.0 | 0.00 | 0.00 | 0.00 | 74 | 1013.1 |
| 20260504203109 | 66 | 243 | 1.0 | 6.0 | 0.00 | 0.00 | 0.00 | 72 | 1013.0 |
| 20260504201559 | 66 | 227 | 1.0 | 7.0 | 0.00 | 0.00 | 0.00 | 74 | 1013.3 |
| 20260504200056 | 65 | 0 | 3.0 | 8.0 | 0.00 | 0.00 | 0.00 | 75 | 1013.2 |
| 20260504194552 | 65 | 185 | 1.0 | 6.0 | 0.00 | 0.00 | 0.00 | 76 | 1013.5 |
| 20260504193048 | 64 | 229 | 2.0 | 8.0 | 0.00 | 0.00 | 0.00 | 74 | 1013.5 |
| 20260504191557 | 64 | 101 | 2.0 | 8.0 | 0.00 | 0.00 | 0.00 | 75 | 1013.5 |
| 20260504190052 | 63 | 169 | 2.0 | 8.0 | 0.00 | 0.00 | 0.00 | 76 | 1013.8 |
| 20260504184551 | 62 | 132 | 2.0 | 7.0 | 0.00 | 0.00 | 0.00 | 77 | 1013.8 |
| 20260504183050 | 62 | 219 | 1.0 | 6.0 | 0.00 | 0.00 | 0.00 | 78 | 1013.9 |
| 20260504181557 | 61 | 0 | 2.0 | 5.0 | 0.00 | 0.00 | 0.00 | 78 | 1013.8 |
| 20260504180051 | 61 | 186 | 1.0 | 6.0 | 0.00 | 0.00 | 0.00 | 78 | 1013.8 |
| 20260504174611 | 59 | 170 | 0.0 | 4.0 | 0.00 | 0.00 | 0.00 | 82 | 1013.9 |
| 20260504173055 | 58 | 247 | 2.0 | 8.0 | 0.00 | 0.00 | 0.00 | 82 | 1013.6 |
| 20260504171555 | 58 | 274 | 1.0 | 8.0 | 0.00 | 0.00 | 0.00 | 82 | 1013.6 |
| 20260504090104 | 55 | 86 | 2.0 | 4.0 | 0.00 | 0.00 | 0.00 | 86 | 1009.4 |
| 20260504081555 | 55 | 108 | 1.0 | 4.0 | 0.00 | 0.00 | 0.00 | 85 | 1009.3 |
| 20260504044602 | 63 | 105 | 2.0 | 6.0 | 0.00 | 0.00 | 0.00 | 76 | 1008.6 |
| 20260504043058 | 63 | 93 | 2.0 | 4.0 | 0.00 | 0.00 | 0.00 | 75 | 1008.5 |
| 20260504041554 | 64 | 106 | 2.0 | 6.0 | 0.00 | 0.00 | 0.00 | 74 | 1008.4 |
| 20260504040114 | 66 | 103 | 2.0 | 6.0 | 0.00 | 0.00 | 0.00 | 73 | 1008.4 |
| 20260504034622 | 67 | 106 | 2.0 | 3.0 | 0.00 | 0.00 | 0.00 | 70 | 1008.1 |
| 20260504033055 | 69 | 105 | 1.0 | 4.0 | 0.00 | 0.00 | 0.00 | 67 | 1008.0 |
| 20260504031552 | 71 | 96 | 0.0 | 3.0 | 0.00 | 0.00 | 0.00 | 62 | 1007.9 |
| 20260504030119 | 73 | 99 | 0.0 | 4.0 | 0.00 | 0.00 | 0.00 | 57 | 1008.0 |
| 20260504024600 | 75 | 0 | 1.0 | 3.0 | 0.00 | 0.00 | 0.00 | 54 | 1007.8 |
| 20260504023050 | 78 | 101 | 1.0 | 3.0 | 0.00 | 0.00 | 0.00 | 50 | 1007.7 |
| 20260504021557 | 81 | 0 | 0.0 | 3.0 | 0.00 | 0.00 | 0.00 | 42 | 1007.9 |
| 20260504020107 | 82 | 0 | 0.0 | 2.0 | 0.00 | 0.00 | 0.00 | 38 | 1007.9 |
| 20260504014601 | 83 | 0 | 0.0 | 2.0 | 0.00 | 0.00 | 0.00 | 37 | 1008.0 |
| 20260504013056 | 83 | 0 | 0.0 | 3.0 | 0.00 | 0.00 | 0.00 | 30 | 1008.0 |
| 20260504011553 | 84 | 0 | 0.0 | 4.0 | 0.00 | 0.00 | 0.00 | 31 | 1008.1 |
| 20260504010058 | 84 | 0 | 0.0 | 2.0 | 0.00 | 0.00 | 0.00 | 29 | 1008.3 |
| 20260504004601 | 84 | 0 | 0.0 | 3.0 | 0.00 | 0.00 | 0.00 | 35 | 1008.5 |
| 20260504003055 | 85 | 336 | 0.0 | 5.0 | 0.00 | 0.00 | 0.00 | 27 | 1008.5 |
| 20260504001608 | 85 | 319 | 0.0 | 4.0 | 0.00 | 0.00 | 0.00 | 28 | 1008.5 |
| 20260504000056 | 85 | 0 | 1.0 | 3.0 | 0.00 | 0.00 | 0.00 | 28 | 1008.5 |
| 20260503234553 | 85 | 0 | 0.0 | 3.0 | 0.00 | 0.00 | 0.00 | 29 | 1008.6 |
| 20260503233053 | 86 | 333 | 1.0 | 4.0 | 0.00 | 0.00 | 0.00 | 29 | 1008.8 |
| 20260503231556 | 86 | 0 | 0.0 | 4.0 | 0.00 | 0.00 | 0.00 | 30 | 1008.8 |
| 20260503230054 | 86 | 347 | 0.0 | 5.0 | 0.00 | 0.00 | 0.00 | 35 | 1009.1 |
| 20260503224554 | 86 | 340 | 0.0 | 3.0 | 0.00 | 0.00 | 0.00 | 33 | 1009.2 |